Gaschem Phoenix — ELUO6 — position and weather

sailwx.info

Track history (hours):
 
Tides and Currents Weather Stations Pressure Air Temp Water Temp Dewpoint Dewpoint Depression Visibility Wind Speed Wind Dir Waves Ship Positions

Gaschem Phoenix

Last reported at 2014-Oct-18 19:23 UTC. Time now 2014-Oct-23 09:30 UTC.
Position N 35°06' E 139°43'.

Length 100 m; draft 6 m.

Type: Ship. MMSI: 636090235.

Date/timePositionNaut miles runAvg speedWind from/ knotsBaromVisibWave heightAir tempDewpointWater temp
2014-Oct-18 19:23N 35°06' E 139°43'1012.0
2014-Oct-18 18:34N 35°15' E 139°46'1110.6
2014-Oct-18 17:34N 35°26' E 139°45'1313.0
2014-Oct-18 16:34N 35°31' E 139°60'0 0.0
2014-Oct-18 03:28N 35°31' E 140°00'1 0.9
2014-Oct-18 02:13N 35°31' E 139°59'0 0.0
2014-Oct-18 00:06N 35°31' E 139°59'0 0.0
2014-Oct-17 22:32N 35°31' E 139°59'0 0.1
2014-Oct-17 21:32N 35°31' E 139°59'0 0.2
2014-Oct-17 19:33N 35°30' E 139°59'1111.6
2014-Oct-17 18:34N 35°25' E 139°47'1110.9
2014-Oct-17 17:34N 35°14' E 139°47'1010.2
2014-Oct-17 16:34N 35°04' E 139°43'  
2014-Oct-14 18:15N 30°57' E 122°42'1012.4
2014-Oct-14 17:26N 30°60' E 122°31'3811.5
2014-Oct-14 14:08N 31°12' E 121°49'914.8
2014-Oct-14 13:31N 31°19' E 121°42'1111.4
2014-Oct-14 12:33N 31°25' E 121°31'1212.0
2014-Oct-14 11:33N 31°33' E 121°20'1614.1
2014-Oct-14 10:24N 31°44' E 121°07'1112.4
2014-Oct-14 09:33N 31°48' E 120°55'1212.5
2014-Oct-14 08:33N 31°60' E 120°49'1413.5
2014-Oct-14 07:29N 32°01' E 120°32'1112.1
2014-Oct-14 06:33N 31°58' E 120°20'1313.0
2014-Oct-14 05:34N 31°57' E 120°04'1313.1
2014-Oct-14 04:33N 32°07' E 119°54'  
2014-Oct-10 23:28N 32°15' E 119°41'9 8.4
2014-Oct-10 22:24N 32°17' E 119°51'8 2.0
2014-Oct-10 18:25N 32°09' E 119°54'6 6.9
2014-Oct-10 17:33N 32°04' E 119°56'9 8.8
2014-Oct-10 16:33N 31°58' E 120°04'9 9.0
2014-Oct-10 15:33N 31°56' E 120°14'9 9.0
2014-Oct-10 14:33N 32°01' E 120°23'8 8.3
2014-Oct-10 13:33N 32°04' E 120°32'9 8.8
2014-Oct-10 12:33N 32°00' E 120°42'9 8.8
2014-Oct-10 11:33N 31°57' E 120°52'1010.2
2014-Oct-10 10:33N 31°48' E 120°56'10 9.7
2014-Oct-10 09:32N 31°44' E 121°07'1111.0
2014-Oct-10 08:32N 31°37' E 121°17'1111.5
2014-Oct-10 07:32N 31°29' E 121°26'9 8.7
2014-Oct-10 06:33N 31°24' E 121°34'9 8.6
2014-Oct-10 05:32N 31°19' E 121°43'3510.7
2014-Oct-10 02:12N 31°02' E 122°20'7 9.7
2014-Oct-10 01:28N 31°01' E 122°28'7 0.9
2014-Oct-09 17:24N 31°01' E 122°36'1 0.4
2014-Oct-09 15:13N 31°01' E 122°37'  
Track history (hours):
 
Tides and Currents Weather Stations Pressure Air Temp Water Temp Dewpoint Dewpoint Depression Visibility Wind Speed Wind Dir Waves Ship Positions

Gaschem Phoenix

Last reported at 2014-Oct-18 19:23 UTC. Time now 2014-Oct-23 09:30 UTC.
Position N 35°06' E 139°43'.

Length 100 m; draft 6 m.

Type: Ship. MMSI: 636090235.

Date/timePositionNaut miles runAvg speedWind from/ knotsBaromVisibWave heightAir tempDewpointWater temp
2014-Oct-18 19:23N 35°06' E 139°43'1012.0
2014-Oct-18 18:34N 35°15' E 139°46'1110.6
2014-Oct-18 17:34N 35°26' E 139°45'1313.0
2014-Oct-18 16:34N 35°31' E 139°60'0 0.0
2014-Oct-18 03:28N 35°31' E 140°00'1 0.9
2014-Oct-18 02:13N 35°31' E 139°59'0 0.0
2014-Oct-18 00:06N 35°31' E 139°59'0 0.0
2014-Oct-17 22:32N 35°31' E 139°59'0 0.1
2014-Oct-17 21:32N 35°31' E 139°59'0 0.2
2014-Oct-17 19:33N 35°30' E 139°59'1111.6
2014-Oct-17 18:34N 35°25' E 139°47'1110.9
2014-Oct-17 17:34N 35°14' E 139°47'1010.2
2014-Oct-17 16:34N 35°04' E 139°43'  
2014-Oct-14 18:15N 30°57' E 122°42'1012.4
2014-Oct-14 17:26N 30°60' E 122°31'3811.5
2014-Oct-14 14:08N 31°12' E 121°49'914.8
2014-Oct-14 13:31N 31°19' E 121°42'1111.4
2014-Oct-14 12:33N 31°25' E 121°31'1212.0
2014-Oct-14 11:33N 31°33' E 121°20'1614.1
2014-Oct-14 10:24N 31°44' E 121°07'1112.4
2014-Oct-14 09:33N 31°48' E 120°55'1212.5
2014-Oct-14 08:33N 31°60' E 120°49'1413.5
2014-Oct-14 07:29N 32°01' E 120°32'1112.1
2014-Oct-14 06:33N 31°58' E 120°20'1313.0
2014-Oct-14 05:34N 31°57' E 120°04'1313.1
2014-Oct-14 04:33N 32°07' E 119°54'  
2014-Oct-10 23:28N 32°15' E 119°41'9 8.4
2014-Oct-10 22:24N 32°17' E 119°51'8 2.0
2014-Oct-10 18:25N 32°09' E 119°54'6 6.9
2014-Oct-10 17:33N 32°04' E 119°56'9 8.8
2014-Oct-10 16:33N 31°58' E 120°04'9 9.0
2014-Oct-10 15:33N 31°56' E 120°14'9 9.0
2014-Oct-10 14:33N 32°01' E 120°23'8 8.3
2014-Oct-10 13:33N 32°04' E 120°32'9 8.8
2014-Oct-10 12:33N 32°00' E 120°42'9 8.8
2014-Oct-10 11:33N 31°57' E 120°52'1010.2
2014-Oct-10 10:33N 31°48' E 120°56'10 9.7
2014-Oct-10 09:32N 31°44' E 121°07'1111.0
2014-Oct-10 08:32N 31°37' E 121°17'1111.5
2014-Oct-10 07:32N 31°29' E 121°26'9 8.7
2014-Oct-10 06:33N 31°24' E 121°34'9 8.6
2014-Oct-10 05:32N 31°19' E 121°43'3510.7
2014-Oct-10 02:12N 31°02' E 122°20'7 9.7
2014-Oct-10 01:28N 31°01' E 122°28'7 0.9
2014-Oct-09 17:24N 31°01' E 122°36'1 0.4
2014-Oct-09 15:13N 31°01' E 122°37'  

Dump ship's entire track history